Tracking 31027 objects as of 19-Jul-2025
HD Live streaming from Space Station
objects crossing your sky now

STARLINK-30128

Track STARLINK-30128 now!
10-day predictions
STARLINK-30128 is classified as:


NORAD ID: 56832
Int'l Code: 2023-079K
Perigee: 565.2 km
Apogee: 567.2 km
Inclination: 43.0 °
Period: 95.8 minutes
Semi major axis: 6937 km
RCS: Unknown
Launch date: June 4, 2023
Source: United States (US)
Launch site: AIR FORCE EASTERN TEST RANGE (AFETR)
Your satellite tracking list
NOAA 16 DEB
Track 1 satellite(s)




NASA's NSSDC Master Catalog

Two Line Element Set (TLE):
1 56832U 23079K   25199.51576345 -.00000123  00000-0  59872-5 0  9990
2 56832  43.0028 273.8128 0001442 277.4585  82.6094 15.02535162111555
Source of the keplerian elements: AFSPC